GW0801 Weather Reports


time (UTC)temp
F
wind
direction
speed
knots
gust
knots
rain 1hr
in
rain 24hr
in
rain mn
in
humidity
%
barometer
mb
20260505224259 69 314 2.6 12.2 0.00 0.04 0.04 29 1014.8
20260505223757 68 152 7.8 16.5 0.00 0.04 0.04 30 1014.8
20260505223253 69 147 9.6 16.5 0.00 0.04 0.04 27 1015.0
20260505222749 69 205 9.6 17.4 0.00 0.04 0.04 27 1015.1
20260505222246 68 59 2.6 18.2 0.00 0.04 0.04 29 1015.3
20260505221743 70 180 7.0 16.5 0.00 0.04 0.04 28 1015.0
20260505221239 68 156 7.0 14.8 0.00 0.04 0.04 28 1015.5
20260505220736 69 247 6.1 12.2 0.00 0.04 0.04 29 1015.4
20260505220233 70 324 6.1 8.7 0.00 0.04 0.04 27 1015.4
20260505215732 70 317 3.5 13.9 0.00 0.04 0.04 28 1015.5
20260505215229 68 230 8.7 17.4 0.00 0.04 0.04 30 1015.6
20260505214727 69 139 5.2 13.9 0.00 0.04 0.04 30 1015.3
20260505214224 68 156 8.7 20.0 0.00 0.04 0.04 30 1016.1
20260505213721 69 167 16.5 21.7 0.00 0.04 0.04 29 1015.7
20260505213218 69 183 7.8 13.0 0.00 0.04 0.04 29 1015.7
20260505212714 68 146 17.4 22.6 0.00 0.04 0.04 27 1016.0
20260505212212 68 148 4.3 13.9 0.00 0.04 0.04 29 1016.1
20260505211708 69 158 12.2 18.2 0.00 0.04 0.04 27 1016.2
20260505211206 69 159 6.1 13.9 0.00 0.04 0.04 28 1016.2
20260505210702 68 165 6.1 19.1 0.00 0.04 0.04 30 1016.2
20260505210159 68 160 7.8 19.1 0.00 0.04 0.04 32 1016.4
20260505205657 68 255 7.8 13.0 0.00 0.04 0.04 32 1016.3
20260505205154 67 159 11.3 18.2 0.00 0.04 0.04 34 1016.4
20260505204651 67 170 7.0 20.0 0.00 0.04 0.04 33 1016.5
20260505204149 67 127 7.0 19.1 0.00 0.04 0.04 33 1016.4
20260505203646 67 123 6.1 20.0 0.00 0.04 0.04 34 1016.4
20260505203142 66 130 7.8 18.2 0.00 0.04 0.04 34 1016.5
20260505202638 67 157 13.0 18.2 0.00 0.04 0.04 35 1016.6
20260505202134 67 164 13.0 19.1 0.00 0.04 0.04 35 1016.6
20260505201631 67 137 11.3 24.3 0.00 0.04 0.04 37 1016.4
20260505201129 66 119 10.4 17.4 0.00 0.04 0.04 38 1016.5
20260505200627 66 138 16.5 18.2 0.00 0.04 0.04 41 1016.6
20260505200124 67 172 5.2 22.6 0.00 0.04 0.04 40 1017.0
20260505195620 66 145 6.1 14.8 0.00 0.04 0.04 41 1017.0
20260505195117 67 161 11.3 24.3 0.00 0.04 0.04 39 1017.0
20260505194614 65 188 3.5 18.2 0.00 0.04 0.04 42 1017.1
20260505194110 66 160 8.7 17.4 0.00 0.04 0.04 42 1017.1
20260505193607 66 198 14.8 15.6 0.00 0.04 0.04 42 1017.2
20260505193104 64 174 7.0 12.2 0.00 0.04 0.04 48 1017.1
20260505192603 64 169 10.4 11.3 0.00 0.04 0.04 46 1017.3
20260505192100 64 149 3.5 15.6 0.00 0.04 0.04 46 1017.2
20260505191558 66 149 9.6 19.1 0.00 0.04 0.04 44 1017.6
20260505191055 64 160 13.9 16.5 0.00 0.04 0.04 45 1017.5
20260505190550 65 164 9.6 19.1 0.00 0.04 0.04 44 1017.8
20260505190046 65 179 13.0 23.5 0.00 0.04 0.04 45 1017.5
20260505185543 66 151 6.1 18.2 0.00 0.04 0.04 44 1017.7
20260505185039 65 148 7.0 13.0 0.00 0.04 0.04 44 1017.8
20260505184536 65 115 6.1 14.8 0.00 0.04 0.04 46 1017.6
20260505184033 65 151 7.8 20.9 0.00 0.04 0.04 46 1017.8
20260505183530 65 187 9.6 15.6 0.00 0.04 0.04 46 1018.0
20260505183027 64 156 11.3 14.8 0.00 0.04 0.04 48 1017.7
20260505182523 65 193 6.1 9.6 0.00 0.04 0.04 48 1017.8
20260505182020 64 154 7.8 16.5 0.00 0.04 0.04 49 1017.8
20260505181517 63 160 14.8 20.0 0.00 0.04 0.04 49 1018.2
20260505181015 63 158 9.6 19.1 0.00 0.04 0.04 49 1018.3
20260505180510 63 145 7.8 19.1 0.00 0.04 0.04 50 1018.0
20260505180008 64 146 7.0 16.5 0.00 0.04 0.04 50 1018.0
20260505175503 63 160 7.8 14.8 0.00 0.04 0.04 51 1018.2
20260505175000 63 163 5.2 16.5 0.00 0.04 0.04 52 1018.3
20260505174457 63 156 10.4 13.9 0.00 0.04 0.04 51 1018.0
20260505173953 63 146 3.5 8.7 0.00 0.04 0.04 52 1018.2
20260505173450 62 137 10.4 12.2 0.00 0.04 0.04 53 1018.3
20260505172947 63 123 13.0 18.2 0.00 0.04 0.04 52 1018.0
20260505172445 62 212 5.2 10.4 0.00 0.04 0.04 53 1018.2
20260505171944 61 203 6.1 9.6 0.00 0.04 0.04 55 1018.0
20260505171441 61 181 4.3 7.8 0.00 0.04 0.04 56 1018.2
20260505170938 60 160 2.6 9.6 0.00 0.04 0.04 57 1018.3
20260505170435 59 154 7.8 11.3 0.00 0.04 0.04 59 1018.2
20260505165930 59 157 5.2 13.0 0.00 0.04 0.04 58 1018.4
20260505165426 59 146 5.2 11.3 0.00 0.04 0.04 59 1018.4
20260505164921 59 147 6.1 12.2 0.00 0.04 0.04 59 1018.3
20260505164418 60 154 5.2 9.6 0.00 0.04 0.04 58 1018.0
20260505163916 59 135 6.1 15.6 0.00 0.04 0.04 61 1017.8
20260505163415 59 218 6.1 7.8 0.00 0.04 0.04 62 1017.9
20260505162914 58 164 7.8 12.2 0.00 0.04 0.04 64 1018.0
20260505162409 58 138 7.0 12.2 0.00 0.04 0.04 63 1017.9
20260505161907 60 127 5.2 9.6 0.00 0.04 0.04 62 1018.2
20260505161403 59 161 5.2 14.8 0.00 0.04 0.04 63 1017.8
20260505160900 59 238 5.2 7.8 0.00 0.04 0.04 63 1017.7
20260505160359 58 154 2.6 11.3 0.00 0.04 0.04 63 1017.7
20260505153337 56 207 2.6 13.0 0.00 0.04 0.04 69 1017.8
20260505152834 57 201 3.5 7.8 0.00 0.04 0.04 71 1017.9
20260505152331 56 172 1.7 8.7 0.00 0.04 0.04 72 1017.7
20260505151826 56 308 2.6 13.0 0.00 0.04 0.04 72 1017.6
20260505151323 55 118 5.2 5.2 0.00 0.04 0.04 74 1017.6
20260505150820 55 102 2.6 6.1 0.00 0.04 0.04 76 1017.6
20260505150317 55 186 1.7 7.0 0.00 0.04 0.04 76 1017.3
20260505140241 52 148 2.6 3.5 0.00 0.04 0.04 88 1017.3
20260505130205 51 108 0.9 1.7 0.02 0.02 0.02 90 1016.4
20260505124655 51 103 1.7 2.6 0.02 0.01 0.01 87 1017.0
20260505124151 51 87 2.6 2.6 0.00 0.00 0.00 87 1016.9
20260505123647 51 129 1.7 1.7 0.00 0.00 0.00 87 1016.9
20260505123145 51 131 0.0 2.6 0.00 0.00 0.00 87 1016.8
20260505122641 51 116 2.6 3.5 0.00 0.00 0.00 87 1016.4
20260505122138 51 110 3.5 4.3 0.00 0.00 0.00 87 1016.5
20260505121635 51 95 2.6 4.3 0.00 0.00 0.00 86 1016.3
20260505121132 51 86 2.6 2.6 0.00 0.00 0.00 88 1016.6
20260505120627 51 125 2.6 3.5 0.00 0.00 0.00 89 1016.9
20260505120124 51 97 1.7 2.6 0.00 0.00 0.00 88 1017.0
20260505115618 51 115 1.7 1.7 0.00 0.00 0.00 88 1017.0
20260505115116 51 136 0.9 1.7 0.00 0.00 0.00 88 1017.0
20260505114612 51 124 1.7 2.6 0.00 0.00 0.00 87 1017.0
20260505114109 51 119 0.9 1.7 0.00 0.00 0.00 86 1017.0
20260505113605 52 115 1.7 1.7 0.00 0.00 0.00 83 1017.2
20260505113102 52 283 0.0 0.0 0.02 0.00 0.00 78 1017.1
20260505112558 52 246 0.0 1.7 0.00 0.00 0.00 79 1017.6
20260505112056 52 173 0.0 0.9 0.00 0.00 0.00 81 1017.2
20260505111550 51 298 0.0 3.5 0.00 0.00 0.00 81 1017.6
20260505111046 52 227 0.9 1.7 0.00 0.00 0.00 82 1017.2
20260505110543 51 279 0.9 2.6 0.00 0.00 0.00 83 1017.2
20260505102015 52 299 9.6 10.4 0.00 0.00 0.00 82 1018.4
20260505101514 52 316 7.0 9.6 0.00 0.00 0.00 82 1018.0
20260505101010 53 295 5.2 11.3 0.00 0.00 0.00 81 1018.0
20260505100507 53 316 9.6 12.2 0.00 0.00 0.00 80 1017.9
20260505100004 53 312 9.6 13.9 0.00 0.00 0.00 79 1018.0
20260505095500 53 302 7.0 10.4 0.00 0.00 0.00 78 1018.2
20260505094956 53 306 5.2 9.6 0.00 0.00 0.00 78 1018.4
20260505094453 53 280 7.0 10.4 0.00 0.00 0.00 77 1018.4
20260505093949 53 293 7.8 11.3 0.00 0.00 0.00 77 1018.3
20260505093446 54 301 11.3 13.0 0.00 0.00 0.00 75 1018.4
20260505092943 54 314 13.0 18.2 0.00 0.00 0.00 75 1017.8
20260505092441 54 305 13.0 14.8 0.00 0.00 0.00 74 1018.2
20260505091938 54 293 7.0 10.4 0.00 0.00 0.00 73 1018.6
20260505091436 54 311 6.1 10.4 0.00 0.00 0.00 71 1018.6
20260505090933 55 301 5.2 7.0 0.00 0.00 0.00 70 1018.7
20260505090432 55 291 4.3 7.8 0.00 0.00 0.00 69 1018.7
20260505085928 55 285 6.1 7.8 0.00 0.00 0.00 69 1018.7
20260505085426 55 286 7.0 7.8 0.00 0.00 0.00 69 1018.5
20260505084924 55 284 4.3 6.1 0.00 0.00 0.00 69 1018.7
20260505084422 55 288 5.2 9.6 0.00 0.00 0.00 68 1018.7
20260505083920 55 303 5.2 9.6 0.00 0.00 0.00 68 1018.7
20260505083417 55 293 9.6 9.6 0.00 0.00 0.00 67 1019.0
20260505082913 55 287 3.5 9.6 0.00 0.00 0.00 65 1019.1
20260505082409 55 267 7.0 11.3 0.00 0.00 0.00 63 1019.0
20260505081906 55 271 5.2 6.1 0.00 0.00 0.00 64 1019.0
20260505081403 55 263 4.3 5.2 0.00 0.00 0.00 65 1018.9
20260505080900 55 302 4.3 7.0 0.00 0.00 0.00 65 1019.2
20260505080355 55 320 7.0 7.8 0.00 0.00 0.00 64 1019.0
20260505075851 55 299 2.6 6.1 0.00 0.00 0.00 64 1019.3
20260505075348 55 301 6.1 9.6 0.00 0.00 0.00 62 1019.2
20260505074846 55 319 7.0 7.8 0.00 0.00 0.00 60 1019.6
20260505074343 56 267 5.2 8.7 0.00 0.00 0.00 59 1019.2
20260505073840 56 296 3.5 9.6 0.00 0.00 0.00 58 1019.3
20260505073338 56 286 3.5 8.7 0.00 0.00 0.00 56 1019.4
20260505072834 56 298 7.0 10.4 0.00 0.00 0.00 54 1019.4
20260505072331 56 289 5.2 6.1 0.00 0.00 0.00 53 1019.7
20260505071827 56 279 4.3 6.1 0.00 0.00 0.00 51 1019.1
20260505071323 57 276 2.6 4.3 0.00 0.00 0.00 48 1019.7
20260505070822 57 279 2.6 5.2 0.00 0.00 0.00 47 1019.6
20260505070318 57 283 2.6 5.2 0.00 0.00 0.00 47 1019.3
20260505065813 57 274 4.3 5.2 0.00 0.00 0.00 47 1019.3
20260505065310 57 287 6.1 6.1 0.00 0.00 0.00 47 1019.3
20260505064807 57 300 6.1 6.1 0.00 0.00 0.00 46 1019.7
20260505064304 57 301 4.3 7.0 0.00 0.00 0.00 45 1019.3
20260505063802 57 297 2.6 5.2 0.00 0.00 0.00 45 1019.6
20260505063258 57 277 4.3 5.2 0.00 0.00 0.00 45 1019.8
20260505062755 57 293 6.1 7.0 0.00 0.00 0.00 45 1019.8
20260505062252 57 261 3.5 6.1 0.00 0.00 0.00 45 1019.9
20260505061749 57 253 4.3 6.1 0.00 0.00 0.00 44 1019.8
20260505061247 57 276 3.5 5.2 0.00 0.00 0.00 44 1019.9
20260505060744 57 251 2.6 3.5 0.00 0.00 0.00 45 1019.4
20260505060241 57 264 1.7 2.6 0.00 0.00 0.00 44 1019.6
20260505055736 57 266 1.7 3.5 0.00 0.00 0.00 44 1019.4
20260505055233 57 255 2.6 5.2 0.00 0.00 0.00 44 1019.6
20260505054730 57 267 2.6 4.3 0.00 0.00 0.00 44 1019.3
20260505054228 57 291 2.6 6.1 0.00 0.00 0.00 44 1019.4
20260505053726 56 297 5.2 7.8 0.00 0.00 0.00 45 1019.9
20260505053222 56 289 6.1 7.8 0.00 0.00 0.00 45 1019.9
20260505052720 56 259 1.7 6.1 0.00 0.00 0.00 46 1020.0
20260505052216 56 276 3.5 6.1 0.00 0.00 0.00 45 1019.9
20260505051714 57 288 3.5 7.8 0.00 0.00 0.00 45 1019.9
20260505051212 57 287 7.0 8.7 0.00 0.00 0.00 44 1019.9
20260505050709 56 275 6.1 7.8 0.00 0.00 0.00 45 1019.8
20260505050207 56 264 6.1 9.6 0.00 0.00 0.00 45 1019.7
20260505041637 57 290 12.2 12.2 0.00 0.00 0.00 45 1019.3
20260505041134 57 303 13.9 13.9 0.00 0.00 0.00 45 1019.1
20260505040631 57 286 7.0 14.8 0.00 0.00 0.00 45 1019.8
20260505040128 57 281 8.7 13.0 0.00 0.00 0.00 45 1020.0
20260505035624 57 288 6.1 13.0 0.00 0.00 0.00 45 1019.9
20260505035121 57 265 6.1 13.9 0.00 0.00 0.00 44 1019.9
20260505034618 57 297 7.0 14.8 0.00 0.00 0.00 44 1019.9
20260505034114 58 293 13.0 17.4 0.00 0.00 0.00 43 1019.7
20260505033611 58 308 9.6 15.6 0.00 0.00 0.00 43 1019.7
20260505033110 58 272 15.6 17.4 0.00 0.00 0.00 43 1019.6
20260505032607 59 301 15.6 20.0 0.00 0.00 0.00 42 1019.3
20260505032103 59 280 7.8 10.4 0.00 0.00 0.00 42 1019.6
20260505031601 59 313 11.3 15.6 0.00 0.00 0.00 42 1019.0
20260505031057 60 288 9.6 13.9 0.00 0.00 0.00 40 1019.2
20260505030554 60 281 7.8 13.9 0.00 0.00 0.00 39 1019.1
20260505030050 60 293 7.8 12.2 0.00 0.00 0.00 38 1018.9
20260505025546 60 302 6.1 13.9 0.00 0.00 0.00 38 1018.6
20260505025045 61 297 9.6 14.8 0.00 0.00 0.00 37 1018.4
20260505024541 61 297 11.3 13.0 0.00 0.00 0.00 37 1018.6
20260505024038 61 271 7.8 16.5 0.00 0.00 0.00 36 1018.5
20260505023536 62 307 7.8 12.2 0.00 0.00 0.00 35 1018.5
20260505023033 62 284 7.0 11.3 0.00 0.00 0.00 34 1018.3
20260505022531 62 289 7.0 11.3 0.00 0.00 0.00 33 1018.2
20260505022028 63 297 5.2 12.2 0.00 0.00 0.00 32 1018.2
20260505021524 63 295 7.0 12.2 0.00 0.00 0.00 31 1018.0
20260505021020 63 288 7.8 14.8 0.00 0.00 0.00 31 1018.5
20260505020515 64 276 7.0 13.9 0.00 0.00 0.00 31 1018.2
20260505020013 64 279 6.1 13.0 0.00 0.00 0.00 30 1018.4
20260505015509 64 296 5.2 10.4 0.00 0.00 0.00 30 1018.3
20260505015006 65 283 7.0 11.3 0.00 0.00 0.00 29 1018.0
20260505014503 65 296 8.7 12.2 0.00 0.00 0.00 29 1018.2
20260505014001 65 271 7.0 14.8 0.00 0.00 0.00 29 1018.0
20260505013457 66 301 6.1 12.2 0.00 0.00 0.00 29 1017.8
20260505012954 66 269 11.3 13.9 0.00 0.00 0.00 28 1018.0
20260505012453 67 298 11.3 13.0 0.00 0.00 0.00 28 1017.9
20260505011949 68 283 4.3 19.1 0.00 0.00 0.00 28 1018.2
20260505011445 68 285 10.4 16.5 0.00 0.00 0.00 28 1018.2
20260505010942 68 311 9.6 14.8 0.00 0.00 0.00 28 1018.3
20260505010438 68 305 11.3 17.4 0.00 0.00 0.00 28 1018.0
20260505005934 68 314 15.6 18.2 0.00 0.00 0.00 27 1018.3
20260505005431 69 274 8.7 11.3 0.00 0.00 0.00 26 1018.3
20260505004929 70 212 7.8 10.4 0.00 0.00 0.00 25 1017.9
20260505004425 70 252 5.2 10.4 0.00 0.00 0.00 26 1018.2
20260505003922 70 229 7.8 10.4 0.00 0.00 0.00 26 1018.4
20260505003419 70 233 7.8 15.6 0.00 0.00 0.00 26 1018.3
20260505002915 71 209 4.3 13.9 0.00 0.00 0.00 26 1018.4
20260505002412 71 240 9.6 13.9 0.00 0.00 0.00 26 1018.3
20260505001910 70 247 7.0 17.4 0.00 0.00 0.00 26 1018.0
20260505001407 72 257 9.6 14.8 0.00 0.00 0.00 25 1018.0
20260505000904 71 242 8.7 19.1 0.00 0.00 0.00 24 1018.3
20260505000402 71 266 7.0 16.5 0.00 0.00 0.00 25 1018.4
20260504235859 71 228 7.8 14.8 0.00 0.00 0.00 25 1018.5
20260504235356 71 243 8.7 13.0 0.00 0.00 0.00 24 1018.3
20260504234852 71 234 11.3 15.6 0.00 0.00 0.00 24 1018.3
20260504234350 71 271 7.8 20.9 0.00 0.00 0.00 24 1018.2
20260504233846 71 205 5.2 9.6 0.00 0.00 0.00 23 1018.2
20260504233342 71 250 10.4 17.4 0.00 0.00 0.00 23 1018.4
20260504232839 71 235 4.3 14.8 0.00 0.00 0.00 23 1018.3
20260504232336 71 238 13.9 16.5 0.00 0.00 0.00 23 1018.4
20260504231833 71 275 9.6 12.2 0.00 0.00 0.00 22 1018.4
20260504231329 71 259 13.0 20.9 0.00 0.00 0.00 22 1018.4
20260504230825 71 240 8.7 13.0 0.00 0.00 0.00 21 1018.2
20260504230323 71 251 13.9 15.6 0.00 0.00 0.00 21 1018.0
20260504225822 71 265 17.4 17.4 0.00 0.00 0.00 21 1018.4
20260504225318 72 233 13.9 14.8 0.00 0.00 0.00 20 1018.2
20260504224815 72 223 12.2 15.6 0.00 0.00 0.00 20 1018.3